Starlink 32947

operational
NORAD ID: 63121 Int'l Des: 2025-039 Owner: SPXS Country: US Constellation: starlink
LEOCIRCULAR

Über Starlink 32947

Beschreibung wird geladen...

Live-Position

3D-Globus wird geladen...

Nächste Überflüge

Höhenverlauf

Altitude vs Time

uPlot chart will show altitude changes over time

Zweizeiliger Elementsatz

1 63121U 25039T 25303.64281338 .00041009 00000-0 14910-2 0 9991
2 63121 43.0015 26.7149 0002754 250.0768 109.9787 15.27589701 38189
Epoch: 30. Okt. 2025 • Age: 13 hours

Aktueller Status

Höhe 484.3 km
Geschwindigkeit 7.63 km/s
Subsatellitenpunkt 29.31°N, 58.61°E
Startdatum 27. Feb. 2025
Alter 0.6 years
Typ internet

Technische Details

Klassifizierung Payload
Masse 730.00 kg
Trockenmasse 700.00 kg
Gesamtmasse 730.00 kg
Länge 0.30 m
Durchmesser 4.10 m
Spannweite 29.00 m
Form Box + pan
Hersteller SPXS
Bus-Typ Starlink V2M
Phasenstatus In Orbit
Besitzer/Staat SPXS/US

Große Konstellationen

Loading constellations...